Temp
40 32 29 33 39 41 39 39 34 39 46 43 42 42 44 50 49 48 49 50 52 55 60 62 63 67 67 65 64 63 62 63 62 62 60 60 59 61 61 60 61 60 60 58
34 31 38 42 42 40 39 36 35 42 47 45 42 41 44 47 49 50 51 50 51 55 58 61 60 63 65 63 64 62 62 62 62 63 62 63 63 62 62 61 60 61 59 59
31 36 42 40 38 37 37 35 37 37 43 45 39 38 42 46 48 51 54 57 58 57 56 59 63 59 64 63 63 63 61 62 63 63 63 63 62 56 56 58 58 59 59 58
35 42 39 38 36 40 32 42 42 41 37 30 40 24 36 39 43 48 53 55 57 58 60 60 61 56 62 64 65 64 62 61 62 63 63 61 58 57 59 60 60 58 58 58
32 35 35 35 37 42 36 43 41 39 33 31 30 23 30 39 40 46 51 51 55 58 60 62 64 59 63 65 64 64 63 61 61 62 64 60 59 60 61 60 58 57 57 57
35 42 39 37 41 41 41 38 37 36 32 21 31 28 31 36 42 46 53 50 52 53 56 60 61 61 57 64 64 63 62 60 60 61 63 61 60 59 58 58 56 56 56 55
30 32 39 41 34 39 37 30 22 18 17 19 31 27 33 39 43 45 47 49 51 52 52 53 54 56 60 60 61 61 61 58 59 59 61 61 60 60 59 57 55 55 55 54
19 21 30 36 34 32 33 32 23 11 16 22 31 24 33 45 50 54 55 51 51 50 52 52 54 53 56 58 60 60 60 59 58 58 60 62 61 60 60 59 58 56 56 56
18 20 34 37 38 37 30 28 36 26 26 20 23 31 40 44 46 47 47 49 50 52 50 53 54 53 54 53 59 60 59 60 59 58 59 61 61 60 60 60 58 57 57 56
23 16 29 33 36 36 33 36 25 27 14 13 21 25 29 35 41 44 44 47 50 51 52 50 50 52 52 53 56 59 60 59 59 58 58 60 61 60 60 60 57 58 56 55
23 20 22 29 29 26 26 25 28 28 26 18 17 23 39 39 44 45 47 46 50 49 49 49 49 49 50 50 50 54 57 58 58 57 58 59 60 60 59 59 59 58 58 56
28 22 14 20 32 35 32 29 26 18 18 22 24 25 43 43 45 45 48 48 46 48 47 47 48 49 48 48 49 50 51 55 56 57 57 57 58 59 58 57 58 59 57 56
24 11 2 14 23 30 26 26 27 24 23 20 17 21 44 41 42 46 43 44 47 47 47 47 47 48 48 48 47 48 49 50 51 54 54 55 56 58 57 57 57 58 56 55
32 19 15 10 19 23 20 24 28 26 16 19 20 23 31 35 36 39 42 45 43 44 47 47 46 46 46 47 47 47 48 49 50 52 53 53 54 58 58 57 56 56 56 54
25 11 20 23 24 25 24 24 26 24 25 19 23 23 29 33 36 40 44 45 46 49 48 45 45 46 46 45 45 47 47 47 48 49 50 52 53 57 58 56 55 55 54 54
28 15 22 13 24 24 21 24 25 26 27 27 27 25 36 38 40 40 43 44 45 48 46 46 46 47 47 48 46 47 46 46 46 46 48 49 49 53 56 54 53 53 53 53
23 14 9 9 21 20 6 20 25 26 29 29 23 31 38 37 39 42 43 45 47 49 48 47 48 47 47 47 48 46 46 45 45 45 45 46 47 49 52 53 52 52 51 51
21 15 13 8 6 -2 22 30 29 27 30 33 34 36 38 39 42 44 47 46 48 51 52 48 47 48 48 47 46 46 45 44 44 44 44 44 44 45 46 51 51 51 50 48
30 23 15 12 -3 16 22 27 25 24 26 34 33 37 37 39 41 41 47 49 49 51 49 47 47 47 48 47 46 44 43 42 42 43 43 44 44 43 43 46 49 49 48 47
28 28 19 10 4 -2 23 31 33 31 19 36 36 36 35 35 30 34 43 47 48 51 53 50 51 46 45 45 45 43 42 41 42 44 44 43 42 43 43 44 45 47 46 43
14 18 15 15 12 14 28 32 33 14 21 35 37 37 36 32 36 42 45 46 49 48 50 47 46 47 47 46 43 42 42 42 45 41 39 39 40 41 42 40 36 39 40 37
12 9 10 10 10 8 31 30 23 31 33 36 37 37 35 37 39 42 43 44 45 45 45 45 43 43 44 42 41 42 41 44 39 37 37 37 37 38 37 37 35 35 37 37
15 21 16 18 18 30 32 31 34 34 33 35 36 38 37 37 38 40 39 40 42 43 42 40 41 40 40 39 40 39 40 37 36 35 35 35 34 34 35 35 34 35 36 36
22 26 24 25 29 30 34 36 37 35 34 38 38 37 38 36 38 37 37 38 39 41 41 39 37 36 36 36 36 37 35 35 34 35 34 34 34 33 33 35 35 36 36 36
24 24 22 22 29 31 31 34 37 36 35 34 37 35 36 37 36 36 35 36 38 38 40 36 35 35 35 34 34 31 33 34 35 35 34 34 34 34 34 35 36 35 37 37
25 26 23 22 32 32 33 37 36 33 34 36 34 34 36 36 34 34 34 36 36 36 38 35 34 34 33 31 29 32 35 36 35 34 33 34 34 33 34 33 33 37 38 38
MSLP
1015.38 1015.51 1014.44 1014.38 1013.75 1013.19 1013.36 1013.05 1012.19 1011.38 1011.02 1011.03 1010.15 1009.47 1009.26 1008.65 1008.33 1008.10 1007.75 1007.72 1007.15 1006.65 1005.99 1005.58 1005.49 1005.80 1006.42 1007.23 1008.26 1009.02 1009.88 1010.90 1011.92 1012.35 1012.87 1013.40 1013.82 1014.59 1015.09 1015.78 1016.41 1016.91 1017.37 1018.08
1015.54 1013.82 1013.96 1014.28 1013.90 1013.41 1013.27 1012.73 1011.63 1011.27 1010.73 1010.96 1010.06 1008.88 1008.89 1008.58 1007.97 1007.50 1007.09 1006.88 1006.39 1005.92 1005.40 1005.01 1004.88 1005.43 1005.59 1006.35 1007.01 1007.96 1008.79 1009.67 1010.69 1011.28 1011.68 1012.36 1013.07 1014.01 1014.63 1015.08 1015.70 1016.35 1016.62 1017.16
1014.46 1013.08 1013.11 1013.50 1013.02 1012.98 1012.50 1011.96 1011.54 1011.20 1010.93 1010.71 1010.38 1008.49 1008.44 1007.69 1007.33 1006.72 1006.09 1005.76 1005.54 1005.32 1005.07 1004.57 1004.31 1004.46 1005.12 1005.44 1006.10 1006.63 1007.49 1008.09 1009.35 1010.24 1011.27 1012.16 1012.94 1013.91 1014.40 1014.73 1014.96 1015.41 1016.03 1016.62
1013.80 1013.19 1013.23 1012.98 1012.49 1012.51 1011.58 1011.56 1011.40 1011.23 1011.43 1011.15 1010.87 1008.39 1007.94 1007.34 1006.73 1006.06 1005.40 1004.96 1004.29 1004.26 1004.00 1003.80 1003.68 1003.97 1004.04 1004.58 1004.76 1005.32 1006.31 1007.20 1008.12 1009.38 1010.17 1010.85 1011.25 1012.04 1012.43 1013.22 1014.25 1014.85 1015.33 1015.90
1012.67 1012.55 1012.54 1011.98 1011.69 1011.92 1011.25 1011.50 1011.56 1011.45 1011.42 1011.46 1011.02 1010.74 1007.17 1006.67 1006.40 1005.56 1004.69 1004.07 1003.36 1003.10 1002.90 1002.87 1002.89 1002.99 1003.51 1003.51 1004.17 1004.75 1005.65 1006.62 1007.33 1008.30 1009.11 1009.83 1010.55 1010.84 1011.62 1012.52 1013.31 1014.01 1014.69 1015.16
1013.67 1013.19 1012.86 1012.35 1012.13 1012.05 1012.04 1011.83 1011.70 1011.85 1012.09 1011.75 1009.08 1010.75 1006.33 1006.81 1005.73 1004.72 1003.67 1003.12 1002.92 1002.54 1002.05 1001.92 1001.80 1002.01 1002.46 1003.07 1003.46 1004.07 1004.85 1005.59 1006.42 1007.28 1008.00 1008.67 1009.23 1009.80 1010.62 1011.40 1012.25 1013.01 1013.68 1014.47
1014.47 1012.87 1012.68 1013.20 1012.82 1012.20 1012.68 1012.80 1012.47 1012.36 1012.29 1010.08 1009.78 1010.29 1005.82 1005.11 1004.30 1003.96 1003.53 1002.81 1002.33 1002.20 1001.94 1001.68 1001.72 1001.96 1001.98 1002.28 1002.85 1003.60 1004.22 1004.80 1005.49 1006.24 1006.89 1007.70 1008.26 1008.97 1009.52 1010.29 1011.04 1012.03 1012.77 1013.32
1016.09 1014.26 1014.12 1013.97 1013.01 1012.80 1012.14 1012.49 1011.90 1011.16 1011.45 1010.05 1009.78 1008.32 1004.00 1004.02 1004.09 1003.51 1003.13 1002.65 1002.08 1001.79 1001.59 1001.39 1001.35 1001.43 1001.22 1001.31 1001.78 1002.30 1003.07 1004.00 1004.75 1005.32 1005.91 1006.81 1007.49 1008.25 1008.76 1009.40 1010.09 1010.71 1011.27 1011.97
1017.63 1016.12 1014.87 1014.27 1013.74 1013.63 1012.17 1011.85 1011.17 1011.90 1011.35 1010.87 1009.29 1006.70 1004.54 1004.22 1003.79 1003.43 1002.90 1002.29 1002.10 1001.33 1001.27 1000.88 1000.72 1000.82 1000.79 1000.87 1000.99 1001.23 1001.88 1002.56 1003.18 1003.90 1004.76 1005.48 1006.42 1007.21 1007.69 1008.24 1009.13 1009.84 1010.51 1011.09
1017.65 1017.19 1015.58 1014.39 1013.74 1012.81 1013.00 1012.24 1012.08 1011.82 1011.34 1010.52 1008.59 1006.99 1004.48 1003.91 1003.51 1003.24 1002.90 1002.62 1001.82 1001.21 1000.87 1000.63 1000.69 1000.67 1000.34 1000.50 1000.45 1000.64 1000.99 1001.24 1001.98 1002.88 1003.61 1004.26 1005.02 1005.96 1006.73 1007.49 1008.15 1008.70 1009.59 1010.37
1017.75 1017.68 1016.20 1015.25 1014.31 1014.17 1013.37 1012.83 1012.14 1011.85 1011.53 1010.14 1008.69 1006.36 1004.76 1004.52 1004.13 1003.35 1002.88 1002.51 1001.80 1001.14 1000.84 1000.59 1000.42 1000.35 1000.14 1000.22 1000.52 1000.42 1000.77 1001.20 1001.62 1002.33 1002.95 1003.52 1004.09 1005.01 1005.94 1006.61 1007.18 1007.83 1008.59 1009.37
1017.01 1017.25 1017.16 1016.06 1014.30 1013.67 1013.35 1013.27 1013.37 1013.26 1011.98 1010.61 1008.49 1005.92 1004.57 1004.20 1004.06 1003.77 1003.27 1002.72 1002.03 1000.94 1000.64 1000.61 1000.58 1000.38 1000.20 1000.21 1000.47 1000.62 1000.75 1000.73 1001.12 1001.71 1002.41 1003.03 1003.61 1004.22 1005.12 1005.73 1006.36 1006.99 1007.60 1008.42
1016.68 1017.35 1017.87 1016.38 1014.77 1013.48 1013.53 1013.78 1013.92 1014.32 1013.62 1011.70 1009.72 1006.95 1005.14 1005.12 1004.59 1003.60 1003.60 1003.15 1002.14 1001.27 1000.62 1000.57 1000.44 1000.39 1000.44 1000.35 1000.42 1000.61 1000.60 1000.75 1000.93 1001.33 1002.03 1002.63 1003.05 1003.53 1004.23 1004.95 1005.49 1006.05 1006.71 1007.43
1015.84 1016.87 1017.13 1016.92 1015.39 1014.65 1014.27 1013.52 1013.57 1013.26 1012.98 1012.19 1010.18 1008.85 1005.75 1006.17 1005.68 1004.98 1003.73 1003.25 1002.72 1001.97 1001.12 1000.41 1000.08 1000.07 1000.37 1000.30 1000.33 1000.36 1000.48 1000.39 1000.69 1001.10 1001.42 1001.94 1002.35 1002.59 1003.27 1004.03 1004.67 1005.25 1005.87 1006.54
1015.57 1016.55 1016.93 1016.39 1015.50 1014.79 1014.44 1013.69 1012.77 1012.72 1012.18 1011.63 1010.03 1009.79 1007.00 1006.16 1005.41 1005.32 1003.89 1002.94 1002.43 1001.70 1000.99 1000.54 1000.17 1000.02 1000.03 1000.08 1000.06 1000.14 1000.27 1000.35 1000.37 1000.64 1000.93 1001.33 1001.89 1002.25 1002.65 1003.28 1003.94 1004.56 1005.15 1005.70
1014.92 1015.77 1016.59 1016.27 1015.51 1015.32 1014.33 1013.22 1011.92 1010.78 1010.75 1010.38 1009.49 1007.91 1005.43 1005.03 1004.45 1004.20 1003.91 1002.23 1001.55 1000.90 1000.52 1000.36 1000.10 1000.02 999.99 999.87 999.74 999.87 999.91 999.97 1000.11 1000.26 1000.22 1000.63 1001.31 1001.72 1001.94 1002.56 1003.26 1003.90 1004.45 1005.03
1014.71 1015.66 1016.73 1016.12 1015.96 1015.55 1014.05 1010.68 1010.76 1009.99 1009.34 1008.85 1007.65 1006.60 1005.19 1004.04 1003.65 1002.70 1002.36 1001.95 1000.47 999.84 999.61 999.53 999.30 999.04 999.02 999.01 998.82 999.00 999.07 999.35 999.71 999.92 1000.09 1000.17 1000.72 1001.19 1001.53 1001.95 1002.64 1003.17 1003.75 1004.43
1014.59 1015.30 1016.38 1016.37 1016.25 1015.45 1010.15 1009.54 1009.39 1009.10 1008.09 1007.34 1006.77 1006.02 1004.53 1003.32 1002.69 1001.46 1000.92 1000.72 999.69 998.50 998.27 998.37 998.28 998.12 997.92 997.74 997.99 998.17 998.56 998.99 999.37 999.54 999.66 999.97 1000.18 1000.63 1001.16 1001.49 1002.01 1002.67 1003.27 1003.68
1013.48 1014.62 1015.41 1015.99 1015.77 1013.35 1010.43 1008.34 1008.61 1008.26 1007.33 1006.46 1005.51 1004.53 1003.67 1003.22 1002.30 1000.74 999.45 998.94 998.33 997.42 996.77 996.69 996.83 997.03 997.11 997.12 997.17 997.63 998.06 998.39 998.76 998.98 999.23 999.53 999.66 1000.05 1000.65 1001.08 1001.48 1002.31 1002.84 1003.33
1012.53 1012.96 1014.21 1014.90 1014.18 1012.63 1008.26 1007.12 1007.18 1007.53 1007.11 1003.62 1004.88 1004.43 1004.01 1003.93 1002.06 1000.59 999.84 999.14 997.93 996.82 996.24 995.99 995.77 995.80 996.00 996.09 996.38 996.93 997.22 997.58 997.84 998.02 998.36 998.79 999.16 999.60 1000.10 1000.56 1001.16 1001.79 1002.49 1003.12
1012.43 1012.63 1012.46 1012.56 1011.95 1010.09 1007.51 1006.71 1006.96 1007.04 1004.75 1004.75 1004.33 1003.97 1003.80 1003.44 1002.87 1000.86 999.61 998.77 997.67 996.08 995.52 995.20 995.22 995.34 995.27 995.16 995.60 996.27 996.48 996.64 996.47 997.19 997.83 998.34 998.73 999.20 999.68 1000.24 1000.88 1001.44 1002.04 1002.85
1010.81 1011.46 1011.22 1011.01 1010.33 1008.63 1006.41 1006.15 1006.14 1004.26 1003.93 1003.80 1003.62 1003.55 1003.15 1002.50 1001.40 1000.45 999.34 998.62 997.90 996.98 996.03 995.38 995.12 994.67 994.33 994.47 994.99 995.55 995.78 995.58 996.06 996.75 997.47 997.98 998.28 998.92 999.58 1000.05 1000.68 1001.27 1001.95 1002.71
1009.27 1008.31 1008.11 1008.36 1007.03 1006.04 1005.14 1004.54 1003.83 1003.85 1003.86 1002.58 1002.71 1002.82 1002.56 1001.75 1000.88 999.98 999.65 999.11 997.94 996.93 996.53 995.72 995.26 994.55 993.95 993.88 994.18 994.86 994.82 995.39 996.04 996.65 997.24 997.64 998.19 998.67 999.30 999.99 1000.65 1001.33 1001.79 1002.51
1007.21 1006.65 1006.89 1006.42 1005.46 1004.95 1004.20 1003.41 1002.90 1002.99 1002.99 1002.23 1001.21 1001.90 1001.45 1000.91 1000.60 999.95 999.90 999.03 997.91 996.57 996.16 995.93 995.26 994.79 994.55 994.30 994.36 994.32 994.62 995.25 995.88 996.59 997.12 997.55 998.13 998.74 999.39 999.93 1000.40 1000.83 1001.42 1002.00
1005.99 1005.86 1005.31 1005.05 1004.42 1003.83 1003.55 1002.55 1001.88 1002.35 1002.30 1001.96 1000.85 1001.01 1000.79 1000.47 1000.06 999.71 998.96 998.38 997.51 997.17 996.29 995.85 995.25 994.58 994.44 994.43 994.48 994.48 994.60 995.07 995.88 996.41 996.97 997.66 998.01 998.46 999.26 999.78 1000.04 1000.35 1000.76 1001.02
1005.19 1004.65 1004.92 1003.74 1003.06 1002.80 1002.18 1001.07 1001.68 1001.96 1001.74 1001.43 1000.89 1000.37 999.79 999.91 999.73 999.49 998.46 997.60 997.05 995.90 995.41 995.43 995.02 994.38 994.25 994.42 994.37 994.61 994.71 994.90 995.53 996.40 997.09 997.47 997.85 998.29 998.92 999.59 1000.06 1000.30 1000.73 1001.19
Wind_Speed
6 6 12 18 19 13 7 10 10 5 9 6 12 13 9 8 7 8 9 9 10 10 10 10 12 19 20 19 20 21 20 19 13 12 13 12 13 9 9 10 13 15 13 13
3 19 13 8 14 14 14 16 19 14 12 10 11 16 9 8 9 9 11 10 9 9 9 10 9 12 20 22 23 20 21 20 17 14 13 11 12 9 8 9 13 16 16 16
15 8 14 13 15 16 17 18 13 14 6 6 8 22 16 10 8 11 13 15 15 15 12 12 13 13 18 22 22 22 23 23 21 20 12 9 8 3 5 10 11 12 15 15
15 14 16 12 16 13 17 7 12 13 9 9 5 15 9 4 11 13 17 19 20 19 16 14 12 9 18 20 21 23 22 22 21 20 16 18 14 13 12 11 11 12 16 16
8 6 7 16 19 9 10 5 10 7 4 2 8 6 5 6 12 17 15 15 19 19 19 19 17 10 14 19 19 20 20 20 20 20 19 15 17 14 10 10 14 14 14 15
19 15 10 0 8 6 6 6 2 3 2 6 21 9 16 12 14 14 21 11 11 11 12 14 13 11 10 15 17 18 20 21 21 21 23 21 22 18 14 14 13 13 12 12
12 24 23 13 14 16 7 2 5 4 6 18 10 8 25 7 8 6 10 11 10 9 7 7 10 10 11 17 17 16 19 20 22 23 23 23 22 22 20 18 14 15 12 12
7 5 9 13 10 14 16 12 10 10 8 15 11 12 19 15 21 23 19 12 9 10 7 7 8 9 11 15 20 21 21 20 20 22 22 21 22 14 14 15 14 14 14 14
2 5 10 7 6 4 5 16 13 12 16 10 5 14 16 11 13 12 11 9 12 12 9 10 9 8 9 9 17 21 21 21 21 23 21 21 20 19 17 18 16 13 14 13
6 4 4 5 6 5 6 5 12 10 15 21 8 12 14 6 9 8 8 10 13 11 11 8 8 9 8 8 11 16 19 23 20 21 20 19 21 20 18 16 16 17 14 15
6 4 4 5 3 11 8 6 6 6 12 13 15 13 15 12 15 19 15 9 15 11 6 4 4 4 3 3 6 10 14 16 16 17 17 19 18 18 17 16 16 15 15 16
9 3 3 9 16 13 14 5 1 6 5 9 16 17 8 12 16 11 19 12 9 8 5 4 4 3 2 2 2 6 7 13 14 14 16 16 16 17 17 17 16 15 16 15
6 2 2 9 7 3 5 5 6 4 9 9 8 8 12 6 9 16 9 10 11 9 7 6 3 4 4 5 5 5 6 7 7 11 13 14 16 17 17 17 16 16 15 15
10 5 8 8 9 3 6 11 10 5 6 14 11 19 27 14 15 21 23 18 11 10 8 8 6 6 6 6 6 6 6 6 7 10 12 14 16 18 17 16 16 16 15 15
8 8 8 13 16 14 13 17 17 12 17 15 21 19 30 22 17 15 25 19 18 18 13 11 8 7 7 7 7 6 6 6 6 8 10 13 12 15 15 14 14 14 15 15
8 8 7 10 13 11 15 16 21 23 18 18 20 23 27 22 18 15 17 26 17 21 11 9 8 7 8 8 7 7 7 7 7 7 10 9 10 13 14 13 13 14 14 15
7 6 4 13 4 1 8 23 16 18 18 16 17 19 26 24 22 19 14 19 24 19 14 10 10 10 9 9 9 9 9 7 8 8 7 9 10 12 13 12 13 15 14 13
5 6 4 6 4 3 20 9 12 17 21 20 19 20 26 26 19 19 17 19 24 24 20 11 9 9 9 7 7 7 6 8 8 8 8 8 10 10 8 11 13 13 13 14
14 8 4 6 7 11 20 19 5 6 19 18 18 21 22 22 22 21 21 20 21 23 14 9 9 9 9 9 8 8 8 8 8 10 10 10 10 10 10 13 13 11 11 11
15 13 10 3 7 11 24 18 8 5 11 27 10 12 15 18 15 13 17 20 20 17 17 12 13 9 7 9 8 8 9 9 12 12 12 10 10 11 12 12 11 10 9 8
5 7 16 14 13 9 14 13 5 6 21 10 14 14 13 12 12 24 22 21 23 11 13 10 9 11 11 9 8 9 10 13 13 8 8 8 9 11 11 9 5 7 8 7
9 8 8 7 8 16 9 9 11 12 8 13 13 14 14 18 17 17 16 16 16 16 11 12 8 9 10 8 9 10 12 11 7 8 8 8 8 7 7 10 6 8 10 10
6 10 8 11 8 7 6 9 8 5 10 19 15 12 12 17 15 18 15 20 18 16 14 9 8 9 7 7 9 9 9 8 7 7 7 6 6 7 8 9 9 8 9 9
6 4 8 14 16 16 16 20 16 6 10 20 20 11 13 17 14 19 16 16 16 16 17 11 8 8 8 6 6 7 6 8 8 9 7 7 9 7 6 6 8 9 9 9
6 5 9 7 13 12 15 19 22 13 12 13 18 12 15 17 17 17 16 17 18 14 16 10 9 7 9 6 6 4 7 9 8 8 8 7 7 9 8 7 8 8 8 11
5 12 7 13 17 15 20 22 13 11 11 15 17 18 23 18 15 13 19 18 17 16 14 10 9 7 7 5 3 5 7 10 11 9 7 7 7 7 7 7 5 5 8 10
Wind_Direction
199 199 210 203 204 228 241 257 256 256 283 302 278 276 262 262 264 258 257 254 242 233 244 230 204 193 186 181 177 180 179 187 177 182 182 184 195 191 178 177 181 184 179 175
182 233 224 232 228 236 239 246 256 278 274 270 282 276 269 244 247 243 244 258 271 273 260 250 216 198 184 180 183 178 185 179 190 190 190 188 187 191 186 173 176 186 182 181
227 214 209 217 230 236 238 239 255 257 273 274 315 288 281 252 245 266 252 249 247 242 243 254 244 189 194 184 184 183 187 184 189 195 182 185 172 112 158 188 184 188 183 181
246 243 248 245 235 226 251 257 270 268 259 262 164 278 237 249 249 246 252 251 247 244 238 230 240 199 187 195 190 188 185 185 189 191 189 191 188 186 199 191 189 186 185 185
231 339 237 228 238 248 265 276 252 248 230 234 242 263 287 235 260 254 257 244 249 241 238 236 233 216 205 192 193 191 187 186 186 188 194 191 195 200 191 190 187 188 188 190
258 276 288 342 321 318 348 257 298 280 172 244 239 210 269 233 249 238 246 251 254 256 246 238 231 209 190 201 197 192 186 188 186 188 195 198 201 196 193 191 188 191 187 188
278 247 257 266 291 286 294 265 241 252 205 243 152 202 246 247 219 220 257 265 271 253 249 244 238 225 215 194 190 193 193 188 189 191 195 203 204 202 200 194 192 187 190 191
347 10 357 355 243 251 230 213 215 213 222 262 159 219 236 219 233 259 267 258 286 280 252 239 245 229 220 193 192 191 191 194 190 192 198 204 209 209 208 200 199 201 199 198
298 276 326 321 303 311 259 226 235 267 271 279 226 274 281 263 261 258 259 268 266 269 242 252 253 235 237 195 197 195 194 196 192 193 197 200 205 207 207 207 201 199 200 197
208 261 263 305 300 297 231 294 237 223 245 239 233 248 253 301 277 300 295 266 276 275 274 254 241 246 239 219 201 200 198 194 192 192 196 201 202 206 208 205 200 202 198 195
158 177 294 345 20 303 315 324 250 232 229 245 256 251 246 250 255 278 290 298 294 273 260 286 291 293 272 265 214 197 199 200 197 197 197 202 203 205 207 212 211 202 198 194
203 195 241 234 271 251 237 285 295 333 349 272 243 252 255 317 303 286 293 292 286 241 236 268 277 283 278 270 236 211 215 199 197 192 195 201 203 201 207 210 209 204 200 196
195 244 16 321 325 80 117 184 205 218 275 293 305 262 275 303 284 291 307 294 267 243 209 220 226 231 259 260 257 243 205 200 182 180 190 197 204 201 207 210 207 205 196 193
144 193 170 220 248 338 304 291 302 294 271 298 287 293 294 306 315 316 309 315 301 294 284 238 220 219 234 243 240 235 237 198 183 184 187 196 202 205 207 206 206 204 198 190
144 207 202 237 256 274 281 291 294 281 269 256 275 272 276 282 282 281 292 288 292 293 265 235 224 229 234 241 235 232 228 223 196 182 188 201 201 209 206 204 204 202 197 195
185 238 194 257 248 273 283 280 274 270 265 255 256 266 274 278 281 273 258 282 276 278 277 278 271 257 235 232 225 224 227 221 200 203 198 184 187 199 204 194 194 195 197 196
181 171 122 258 132 328 310 240 260 267 268 270 274 272 282 286 275 271 263 258 271 268 263 250 244 229 220 220 214 212 215 204 203 205 201 181 181 196 205 189 190 197 194 189
209 156 160 256 66 238 259 266 239 249 265 271 268 271 267 273 285 283 282 264 262 261 257 246 237 240 236 229 224 224 201 202 207 209 198 192 181 186 192 200 197 199 194 188
216 202 209 214 195 271 292 270 187 249 281 282 264 275 286 294 293 296 274 263 253 255 249 223 214 218 233 230 221 202 199 198 196 209 206 201 190 182 182 200 197 195 188 186
207 208 200 169 190 210 254 275 195 239 283 269 306 324 345 343 319 307 314 317 289 260 253 250 246 239 231 241 213 192 205 196 209 208 207 195 187 186 190 190 192 183 184 183
154 200 223 228 233 256 256 271 117 229 254 358 323 324 310 293 281 293 300 307 310 264 258 257 250 235 233 233 183 202 204 209 212 194 179 180 185 186 187 168 154 165 163 146
164 160 201 221 232 250 234 270 218 245 315 304 296 301 299 293 286 292 304 312 318 312 299 278 252 237 232 206 176 205 211 216 179 168 179 186 174 171 162 161 153 153 157 166
227 199 201 184 209 227 216 225 241 265 272 284 283 289 289 293 301 303 311 306 304 310 304 291 268 260 244 207 186 198 218 170 172 169 181 166 149 150 157 159 159 160 167 172
252 211 227 250 248 255 264 277 276 234 258 278 284 276 296 291 293 294 295 295 297 309 304 289 276 273 269 236 216 215 164 164 156 163 159 151 152 140 144 152 166 169 174 174
206 159 219 255 258 270 260 257 269 266 263 268 277 277 275 286 286 287 291 299 291 280 286 274 266 260 266 248 223 185 163 149 159 156 152 157 151 154 154 168 173 175 184 179
176 238 233 249 255 248 262 268 285 265 264 264 279 285 283 279 274 274 282 284 279 284 283 264 258 251 263 242 197 176 164 162 157 155 162 162 157 154 156 155 135 158 164 172